Regional Weather Roundup
Issued by NWS Newport/Morehead, NC

Current Version | Previous Version | Text Only | Print | Product List | Glossary On
Versions: 1 2 3 4 5 6 7 8 9 10 11 12 13 14 15 16 17 18 19 20 21 22 23 24 25 26 27 28 29 30 31 32 33 34 35 36 37 38 39 40 41 42 43 44 45 46 47 48 49 50
000
ASUS42 KMHX 261110
RWRMHX
WEATHER ROUNDUP FOR EASTERN NORTH CAROLINA
NATIONAL WEATHER SERVICE NEWPORT/MOREHEAD CITY NC
600 AM EST FRI DEC 26 2014

NOTE: "FAIR" INDICATES FEW OR NO CLOUDS BELOW 12,000 FEET
WITH NO SIGNIFICANT WEATHER AND/OR OBSTRUCTIONS TO VISIBILITY

NCZ015>017-031-032-045>047-102-103-261200-
NORTH COAST

CITY           SKY/WX    TMP DP  RH WIND       PRES   REMARKS
EDENTON          N/A     33  32  96 CALM      30.29R
ELIZABETH CITY CLEAR     39  33  79 CALM      30.29R
KITTY HAWK     SUNNY     43  40  91 CALM      30.27R
MANTEO         CLEAR     37  37 100 CALM      30.29R

$$

NCZ045>047-081-094-103-104-261200-
CENTRAL COAST

CITY           SKY/WX    TMP DP  RH WIND       PRES   REMARKS
FRISCO         CLEAR     43  40  89 N5        30.28R
SWANQUARTER      N/A     37 N/A N/A CALM      30.24S

$$

NCZ095-097-098-100-101-261200-
SOUTHERN COAST

CITY           SKY/WX    TMP DP  RH WIND       PRES   REMARKS
BEAUFORT       CLEAR     36  35  96 CALM      30.29R
CEDAR ISLAND     N/A     48 N/A N/A NW3       30.33R
JACKSONVILLE   CLEAR     36  35  96 NW3       30.29R
PINEY ISLAND   SUNNY     46  40  79 CALM      30.29R
WILMINGTON     CLEAR     36  34  92 CALM      30.29R


$$

NCZ011>013-027>030-043-044-078>080-089-090>093-098-261200-
COASTAL PLAIN

CITY           SKY/WX    TMP DP  RH WIND       PRES   REMARKS
AHOSKIE        CLEAR     30  29  96 CALM      30.31R
CLINTON        CLEAR     33  33 100 CALM      30.31R
ELIZABETHTOWN  CLEAR     35  34  96 CALM      30.29R
GOLDSBORO      FOG       34  33  98 CALM      30.28R VSB 1/4
GREENVILLE     FOG       32  32 100 CALM      30.30R VSB 1/4
HAVELOCK       FAIR      35  33  92 CALM      30.30R
KENANSVILLE    CLEAR     31  31 100 CALM      30.31R
KINSTON        NOT AVBL
NEW BERN       FOG       35  33  92 CALM      30.31R VSB 1/4
RICHLANDS      CLEAR     32  28  86 CALM      30.30R
ROCKY MOUNT    CLEAR     34  32  92 CALM      30.31R
WASHINGTON     CLEAR     32  31  96 CALM      30.30R
WHITEVILLE     CLEAR     35  34  96 CALM      30.29R

$$

AMZ130-135-150-152-154-156-158-170-250-252-270-ANZ085-086-088-633-658-670-261200-
MARINE OBSERVATIONS

STATION/POSITION TIME  TEMP    WIND        PRES    WAVE   SWELL
                       AIR SEA DIR/SP/G            HT/PER HT/PER
                 (UTC) (F)     (DEG/KT/KT) (MB)    (FT/S) (FT/S)
CHESAPEAKE LIGHT 1000   47      40/ 11/ 12 1025.0
64 E VA BEACH    1100   51 52   40/  6/  6 1024.5    3/ 8   3/ 8
DUCK             1100   48 50  360/  3/  4 1024.3
2 E DUCK         1100      50                N/A     2/10
10 NE DUCK       1100      50                N/A     2/ 9
OREGON INLET     1100   44 54  320/  4/  5 1025.2
13E OREGON INLT  1100      50                N/A     3/ 8   2/11
HATTERAS CG      1100   50 56   30/  5/  6 1025.4
DIAMOND BUOY     1100   54                 1025.0    3/ 9
17 S OCRACOKE    NOT AVBL
CAPE LOOKOUT     1000   50      20/  7/  8 1024.8
BEAUFORT LAB     1100   44 55   10/  3/  4 1024.3
30 SE NEW RIVER  1100   56 60   60/  6/ 10 1025.5    3/ 7   3/ 7
5 SE WRIGHTSVLE  NOT AVBL
225 S CAPE HAT   1015   67 71   50/ 10/ 14 1023.7    6/ 7   5/ 7
41 SE CHARLESTON 1100   60 71   60/  6/ 10 1024.0    2/ 8   2/ 8

$$



USA.gov is the U.S. government's official web portal to all federal, state and local government web resources and services.